Regional Weather Roundup
Issued by NWS Kansas City/Pleasant Hill, MO

Home | Current Version | Previous Version | Graphics & Text | Print | Product List | Glossary Off
Versions: 1 2 3 4 5 6 7 8 9 10 11 12 13 14 15 16 17 18 19 20 21 22 23 24 25 26 27

000
ASUS43 KEAX 061610
RWREAX

WEATHER ROUNDUP FOR EASTERN KANSAS AND NORTHWEST MISSOURI
NATIONAL WEATHER SERVICE KANSAS CITY/PLEASANT HILL MO
1000 AM CST TUE DEC 06 2016

KSZ040-057-103>105-MOZ028-029-037-043-061700-
...KANSAS CITY METROPOLITAN AREA...

CITY           SKY/WX    TMP DP  RH WIND       PRES   REMARKS
K.C. INTL      MOSUNNY   33  15  47 NW17G26   30.02R WCI  22
K.C. DOWNTOWN  SUNNY     36  17  46 N13G24    30.03R WCI  27
LEES SUMMIT    SUNNY     35  16  45 NW22G29   30.02R WCI  23
OLATHE - IXD   SUNNY     33  19  56 NW21G28   30.05R WCI  21
OLATHE - OJC   SUNNY     33  16  49 N17G26    30.03R WCI  22
LAWRENCE       SUNNY     34  19  54 NW17      30.06R WCI  23

$$

MOZ001>008-011>017-020>025-030>033-038>040-044>046-053-054-061700-
...NORTHERN AND CENTRAL MISSOURI...

CITY           SKY/WX    TMP DP  RH WIND       PRES   REMARKS
ST. JOSEPH     SUNNY     32  16  51 N17       30.04R WCI  21
MOSBY            N/A     34  18  51 NW15G25   30.02R WCI  24
WHITEMAN AFB   MOSUNNY   36  25  65 N12       29.99R WCI  27
CLINTON        NOT AVBL
SEDALIA        CLOUDY    36  27  69 N16G24    30.00R WCI  26
WARSAW         NOT AVBL
CHILLICOTHE      N/A     34  20  56 NW12G24   30.00R WCI  25
KIRKSVILLE     SUNNY     35  25  66 NW16G25   29.93R WCI  25

$$

MOZ041-047>049-056>058-063>065-088>090-097-061700-
...EASTERN AND SOUTHERN MISSOURI...

CITY           SKY/WX    TMP DP  RH WIND       PRES   REMARKS
ST. LOUIS INTL CLOUDY    41  34  76 NW10      29.88R WCI  35
SPIRIT OF STL  CLOUDY    40  36  86 NW7       29.90R
COLUMBIA       FOG       35  35 100 NW15      29.94R VSB 1   WCI  25
JEFFERSON CITY CLOUDY    35  34  96 MISG      29.96R FOG
ROLLA          LGT SNOW  34  34 100 NW8       29.92R VSB 3/4 WCI  27
OSAGE BEACH    CLOUDY    36  35  96 NW9G16    29.98R WCI  29
SPRINGFIELD    CLOUDY    38  35  89 N14       29.97R WCI  30
BRANSON        CLOUDY    39  37  93 NW10      29.96R FOG     WCI  32
JOPLIN         CLOUDY    37  31  78 N16G25    30.03R WCI  28
WEST PLAINS    MOSUNNY   44  37  76 NW9       29.92R

$$

IAZ060-094-KSZ022-034>040-054-083-096-NEZ052-066-093-061700-
...KANSAS...SOUTHEAST NEBRASKA AND IOWA...

CITY           SKY/WX    TMP DP  RH WIND       PRES   REMARKS
TOPEKA         SUNNY     33  13  43 NW22      30.08R WCI  21
MANHATTAN      SUNNY     33  15  47 NW12G21   30.11R WCI  24
EMPORIA        SUNNY     32  17  54 NW18      30.08R WCI  20
CHANUTE        CLOUDY    35  22  58 N15G25    30.07R WCI  25
WICHITA        SUNNY     34  19  54 N16G23    30.11R WCI  24
OMAHA          SUNNY     27  12  53 NW18G24   30.03R WCI  14
LINCOLN        SUNNY     29   9  43 N22G31    30.06R WCI  15
FALLS CITY     SUNNY     29  13  51 NW18      30.06R WCI  16
LAMONI         SUNNY     29  18  63 NW18G26   29.98R WCI  16
DES MOINES     MOSUNNY   28  15  58 NW20G30   29.96R WCI  15

$$





USA.gov is the U.S. government's official web portal to all federal, state and local government web resources and services.